Tracking 29892 objects as of 21-Nov-2024
HD Live streaming from Space Station
objects crossing your sky now

STARLINK-1273

Track STARLINK-1273 now!
10-day predictions
STARLINK-1273 is classified as:


NORAD ID: 45367
Int'l Code: 2020-019H
Perigee: 553.4 km
Apogee: 555.3 km
Inclination: 53.1 °
Period: 95.6 minutes
Semi major axis: 6925 km
RCS: Unknown
Launch date: March 18, 2020
Source: United States (US)
Launch site: AIR FORCE EASTERN TEST RANGE (AFETR)
Your satellite tracking list
Your tracking list is empty




NASA's NSSDC Master Catalog

Two Line Element Set (TLE):
1 45367U 20019H   24325.86455015  .00006360  00000-0  44541-3 0  9993
2 45367  53.0531 133.7040 0001350  97.3553 262.7590 15.06404099258311
Source of the keplerian elements: AFSPC